Flights from Saturday August 29, 2026

The table below shows the detailed information of all trackers on Saturday Aug 29, 2026.

Ident Type CommentCommentDate
Jogger JA1DRE-A Jogger Jogger D-STAR & 439.64 JR1WM Sat, 29 Aug 2026 06:15:00 +0900 29/8/2026 6:15 am
Car JR1WUT-2 Car Car ID-5100D Member of JARL Sat, 29 Aug 2026 06:18:00 +0900 29/8/2026 6:18 am
Jogger JH3XPP-12 Jogger Jogger Sat, 29 Aug 2026 06:24:00 +0900 29/8/2026 6:24 am
Car JR5EOY-12 Car Car Sat, 29 Aug 2026 06:26:31 +0900 29/8/2026 6:26 am
Phone JJ5MDM-5 Phone Phone http://shumiyama.com/ Sat, 29 Aug 2026 06:28:36 +0900 29/8/2026 6:28 am
Car JK1LSG Car Car / Sat, 29 Aug 2026 06:28:40 +0900 29/8/2026 6:28 am
Car JA6WBR-12 Car Car U2APRS Sat, 29 Aug 2026 06:29:06 +0900 29/8/2026 6:29 am
No. WX Stn JL1LCW-15 No. WX Stn No. WX Stn g...t...X850 /APRS Geiger Sat, 29 Aug 2026 06:29:27 +0900 29/8/2026 6:29 am
Jogger JI3AES-1 Jogger Jogger ID-52Plus Sat, 29 Aug 2026 06:31:00 +0900 29/8/2026 6:31 am
Jogger JO1CTH-A Jogger Jogger /0 Sat, 29 Aug 2026 06:42:00 +0900 29/8/2026 6:42 am
Jogger JK3AZL Jogger Jogger / Sat, 29 Aug 2026 06:42:24 +0900 29/8/2026 6:42 am
Phone BV3UJ-10 Phone Phone https://aprsdroid.org/ Sat, 29 Aug 2026 06:42:35 +0900 29/8/2026 6:42 am
Jogger JK2PLQ-5 Jogger Jogger Sat, 29 Aug 2026 06:45:28 +0900 29/8/2026 6:45 am
Car JE3ZUE-9 Car Car / Sat, 29 Aug 2026 06:46:00 +0900 29/8/2026 6:46 am
Car JS2NDH Car Car / Sat, 29 Aug 2026 06:47:00 +0900 29/8/2026 6:47 am
Phone BV3UJ-5 Phone Phone /144.500MHz https://aprsdro Sat, 29 Aug 2026 06:48:41 +0900 29/8/2026 6:48 am
Jogger JO6BWP-7 Jogger Jogger / Sat, 29 Aug 2026 06:50:00 +0900 29/8/2026 6:50 am
Car JM1VNK Car Car / Sat, 29 Aug 2026 06:51:13 +0900 29/8/2026 6:51 am
Phone JH1VOX-5 Phone Phone https://aprsdroid.org/ Sat, 29 Aug 2026 06:52:59 +0900 29/8/2026 6:52 am
Car 7K3SGX-9 Car Car /433.000MHz D7 Sat, 29 Aug 2026 06:54:30 +0900 29/8/2026 6:54 am
Jogger JG1JZL-7 Jogger Jogger TXC:1 Temp: 29.66F Humid:65.69% Batt: 4.1V Sat, 29 Aug 2026 07:01:32 +0900 29/8/2026 7:01 am
Jogger JA2XTV Jogger Jogger / Sat, 29 Aug 2026 07:03:08 +0900 29/8/2026 7:03 am
Phone JH8CLC-5 Phone Phone https://aprsdroid.org/ Sat, 29 Aug 2026 07:04:47 +0900 29/8/2026 7:04 am
Phone 7K3SGX-5 Phone Phone aprs.fi for iOS!wJb! Sat, 29 Aug 2026 07:05:45 +0900 29/8/2026 7:05 am
Jogger JG1WYZ-7 Jogger Jogger ID-52PLUS Sat, 29 Aug 2026 07:08:23 +0900 29/8/2026 7:08 am